Location: Moscow
(55.7500°N, 37.5830°E)
Time: 11:19:13
(UTC+03:00)

Explorer 7 - Pass Details

Date: 02 December 2021
Orbit: 483 x 674 km, 50.3° (Epoch: 19 January)

Event Time Altitude Azimuth Distance (km) Brightness Sun altitude
Rises 09:49:06 0° 258° (WSW) 2,699 10.1 6.0°
Reaches altitude 10° 09:51:29 10° 250° (WSW) 1,775 9.3 6.2°
Maximum altitude 09:55:12 37° 182° (S) 804 8.5 6.5°
Drops below altitude 10° 09:58:45 10° 114° (ESE) 1,697 10.4 6.7°
Sets 10:00:59 0° 106° (ESE) 2,563 11.1 6.9°
